Weather History for Auburn, IN

Change the Weather History Date:

Friday, March 28, 2014

  Actual Average (KFWA) Record (KFWA)
Temperature  
Mean Temperature 42 °F 43 °F  
Max Temperature 50 °F 53 °F 84 °F (1910)
Min Temperature 33 °F 33 °F 10 °F (1955)
Degree Days  
Heating Degree Days 24 22  
Month to date heating degree days 763  
Since 1 July heating degree days 5361  
Cooling Degree Days 0 0  
Month to date cooling degree days 0  
Year to date cooling degree days 0  
Moisture  
Dew Point 36 °F    
Average Humidity 79    
Maximum Humidity 87    
Minimum Humidity 62    
Precipitation  
Precipitation 0.00 in 0.11 in 2.12 in (1907)
Month to date precipitation 2.39  
Year to date precipitation 6.69  
Snow  
Snow 0.00 in 0.10 in 0.50 in (1964)
Month to date snowfall 3.9  
Since 1 July snowfall 32.3  
Snow Depth -    
Sea Level Pressure  
Sea Level Pressure 29.88 in    
Wind  
Wind Speed 15 mph (WSW)    
Max Wind Speed 22 mph    
Max Gust Speed 33 mph    
Visibility 9 miles    
Events Rain    
T = Trace of Precipitation, MM = Missing Value Source: NWS Daily Summary

Daily Weather History Graph

Daily Weather History Graph

Search for Another Location

Airport:

Trip Planner

Search our weather history database for the weather conditions in past years. The results will help you decide how hot, cold, wet, or windy it might be!

Date:

Astronomy

Mar. 28, 2014 Rise Set
Actual Time 7:30 AM EDT 8:01 PM EDT
Civil Twilight 7:02 AM EDT 8:28 PM EDT
Nautical Twilight 6:29 AM EDT 9:01 PM EDT
Astronomical Twilight 5:56 AM EDT 9:35 PM EDT
Moon 6:01 AM EDT (3/28) 5:55 PM EDT (3/28)
Length of Visible Light 13h 26m
Length of Day
12h 31m
Waning Crescent, 6% of the Moon is Illuminated
Mar 28
Waning Crescent
Mar 30
New
Apr 7
First Quarter
Apr 15
Full
Apr 22
Last Quarter

Hourly Weather History & Observations

Time (EDT) Temp. Windchill Dew Point Humidity Pressure Visibility Wind Dir Wind Speed Gust Speed Precip Events Conditions
12:15 AM 48.2 °F - 35.6 °F 62% 29.64 in 10.0 mi South 15.0 mph 23.0 mph N/A   Overcast
12:35 AM 48.2 °F - 35.6 °F 62% 29.65 in 10.0 mi SSW 16.1 mph 27.6 mph N/A   Overcast
12:55 AM 48.2 °F - 35.6 °F 62% 29.65 in 10.0 mi SSW 15.0 mph 26.5 mph N/A   Overcast
1:15 AM 48.2 °F - 35.6 °F 62% 29.65 in 10.0 mi SSW 15.0 mph 26.5 mph N/A   Overcast
1:35 AM 50.0 °F - 37.4 °F 62% 29.64 in 10.0 mi SSW 21.9 mph 33.4 mph N/A   Overcast
1:55 AM 50.0 °F - 37.4 °F 62% 29.63 in 10.0 mi SSW 17.3 mph 33.4 mph N/A Rain Light Rain
2:20 AM 48.2 °F - 41.0 °F 76% 29.62 in 10.0 mi SSW 16.1 mph 27.6 mph N/A   Mostly Cloudy
2:35 AM 48.2 °F - 41.0 °F 76% 29.63 in 10.0 mi SSW 18.4 mph 28.8 mph N/A   Scattered Clouds
2:55 AM 48.2 °F - 41.0 °F 76% 29.61 in 10.0 mi SSW 15.0 mph 29.9 mph N/A   Scattered Clouds
3:15 AM 50.0 °F - 41.0 °F 71% 29.61 in 10.0 mi SSW 18.4 mph 31.1 mph N/A   Scattered Clouds
3:35 AM 50.0 °F - 42.8 °F 76% 29.61 in 10.0 mi SSW 18.4 mph 27.6 mph N/A   Scattered Clouds
3:55 AM 50.0 °F - 42.8 °F 76% 29.60 in 10.0 mi SSW 17.3 mph 28.8 mph N/A   Mostly Cloudy
4:15 AM 50.0 °F - 42.8 °F 76% 29.60 in 10.0 mi SSW 13.8 mph 28.8 mph N/A   Mostly Cloudy
4:35 AM 50.0 °F - 42.8 °F 76% 29.59 in 10.0 mi SSW 16.1 mph 25.3 mph N/A   Scattered Clouds
4:55 AM 50.0 °F - 42.8 °F 76% 29.58 in 10.0 mi SSW 19.6 mph 28.8 mph N/A   Mostly Cloudy
5:15 AM 50.0 °F - 42.8 °F 76% 29.58 in 10.0 mi South 17.3 mph 25.3 mph N/A   Overcast
5:35 AM 50.0 °F - 42.8 °F 76% 29.59 in 10.0 mi SSW 16.1 mph 29.9 mph N/A   Overcast
5:55 AM 50.0 °F - 42.8 °F 76% 29.60 in 10.0 mi SSW 18.4 mph 27.6 mph N/A   Overcast
6:15 AM 50.0 °F - 42.8 °F 76% 29.60 in 10.0 mi SSW 13.8 mph 25.3 mph N/A   Overcast
6:35 AM 50.0 °F - 44.6 °F 82% 29.61 in 10.0 mi SSW 16.1 mph 25.3 mph N/A   Overcast
6:55 AM 50.0 °F - 44.6 °F 82% 29.61 in 10.0 mi SSW 15.0 mph 25.3 mph N/A   Overcast
7:15 AM 50.0 °F - 44.6 °F 82% 29.62 in 10.0 mi SSW 12.7 mph 20.7 mph N/A Rain Rain
7:35 AM 50.0 °F - 44.6 °F 82% 29.63 in 10.0 mi SW 12.7 mph 28.8 mph N/A   Drizzle
8:15 AM 46.4 °F 40.7 °F 41.0 °F 81% 29.66 in 10.0 mi SW 12.7 mph 27.6 mph N/A   Overcast
8:35 AM 44.6 °F 38.1 °F 37.4 °F 76% 29.68 in 10.0 mi WSW 13.8 mph 31.1 mph N/A   Overcast
8:55 AM 42.8 °F 34.5 °F 37.4 °F 81% 29.70 in 10.0 mi WSW 18.4 mph 26.5 mph N/A   Overcast
9:15 AM 42.8 °F 35.1 °F 37.4 °F 81% 29.72 in 10.0 mi WSW 16.1 mph 31.1 mph N/A   Overcast
9:35 AM 42.8 °F 34.5 °F 37.4 °F 81% 29.74 in 5.0 mi WSW 18.4 mph 31.1 mph N/A   Haze
9:55 AM 41.0 °F 33.5 °F 37.4 °F 87% 29.76 in 2.5 mi WSW 13.8 mph 23.0 mph N/A Rain Light Rain
10:15 AM 41.0 °F 34.7 °F 37.4 °F 87% 29.78 in 3.0 mi WSW 10.4 mph 20.7 mph N/A Rain Light Rain
10:35 AM 41.0 °F 33.9 °F 37.4 °F 87% 29.80 in 3.0 mi WSW 12.7 mph 21.9 mph N/A Rain Rain
10:55 AM 41.0 °F 34.7 °F 37.4 °F 87% 29.82 in 3.0 mi WSW 10.4 mph 20.7 mph N/A   Drizzle
11:15 AM 41.0 °F 33.9 °F 37.4 °F 87% 29.83 in 2.5 mi WSW 12.7 mph 20.7 mph N/A   Drizzle
11:35 AM 42.8 °F 34.8 °F 37.4 °F 81% 29.85 in 10.0 mi West 17.3 mph 24.2 mph N/A   Overcast
11:55 AM 41.0 °F 32.5 °F 35.6 °F 81% 29.87 in 10.0 mi WNW 17.3 mph 26.5 mph N/A   Overcast
12:15 PM 37.4 °F 28.9 °F 33.8 °F 87% 29.89 in 10.0 mi WNW 13.8 mph 24.2 mph N/A   Overcast
12:35 PM 39.2 °F 30.8 °F 33.8 °F 81% 29.91 in 10.0 mi WNW 15.0 mph 19.6 mph N/A   Overcast
12:55 PM 39.2 °F 31.2 °F 33.8 °F 81% 29.93 in 10.0 mi West 13.8 mph - N/A   Overcast
1:15 PM 39.2 °F 31.2 °F 32.0 °F 75% 29.96 in 10.0 mi West 13.8 mph - N/A   Overcast
1:35 PM 37.4 °F 28.9 °F 32.0 °F 81% 29.98 in 10.0 mi West 13.8 mph - N/A   Overcast
1:55 PM 37.4 °F 28.2 °F 32.0 °F 81% 30.00 in 10.0 mi West 16.1 mph - N/A   Overcast
2:15 PM 37.4 °F 30.3 °F 32.0 °F 81% 30.01 in 10.0 mi West 10.4 mph - N/A   Overcast
2:35 PM 37.4 °F 30.8 °F 32.0 °F 81% 30.03 in 10.0 mi WSW 9.2 mph 17.3 mph N/A   Overcast
2:55 PM 37.4 °F 29.8 °F 32.0 °F 81% 30.04 in 10.0 mi West 11.5 mph - N/A   Overcast
3:15 PM 37.4 °F 29.8 °F 32.0 °F 81% 30.03 in 10.0 mi West 11.5 mph 18.4 mph N/A   Overcast
3:35 PM 41.0 °F 32.5 °F 32.0 °F 70% 30.03 in 10.0 mi WNW 17.3 mph - N/A   Overcast
3:55 PM 41.0 °F 31.4 °F 33.8 °F 76% 30.02 in 10.0 mi WNW 21.9 mph 28.8 mph N/A   Overcast
4:15 PM 41.0 °F 33.5 °F 32.0 °F 70% 30.04 in 10.0 mi West 13.8 mph 23.0 mph N/A   Overcast
4:35 PM 41.0 °F 33.1 °F 32.0 °F 70% 30.05 in 10.0 mi West 15.0 mph 18.4 mph N/A   Overcast
4:55 PM 41.0 °F 33.1 °F 32.0 °F 70% 30.08 in 10.0 mi WNW 15.0 mph - N/A   Overcast
5:15 PM 39.2 °F 32.0 °F 32.0 °F 75% 30.09 in 10.0 mi WNW 11.5 mph - N/A   Overcast
5:35 PM 39.2 °F 30.5 °F 32.0 °F 75% 30.10 in 10.0 mi West 16.1 mph - N/A   Overcast
5:55 PM 37.4 °F 28.9 °F 32.0 °F 81% 30.10 in 10.0 mi WNW 13.8 mph - N/A   Overcast
6:15 PM 37.4 °F 30.8 °F 32.0 °F 81% 30.11 in 10.0 mi WNW 9.2 mph - N/A   Overcast
6:35 PM 37.4 °F 30.3 °F 32.0 °F 81% 30.11 in 10.0 mi WNW 10.4 mph - N/A   Overcast
6:55 PM 37.4 °F 30.3 °F 32.0 °F 81% 30.11 in 10.0 mi NNW 10.4 mph - N/A   Overcast
7:15 PM 35.6 °F 27.1 °F 30.2 °F 81% 30.11 in 10.0 mi NNW 12.7 mph 17.3 mph N/A   Overcast
7:35 PM 35.6 °F 28.6 °F 30.2 °F 81% 30.12 in 10.0 mi NW 9.2 mph - N/A   Overcast
7:55 PM 35.6 °F 27.1 °F 30.2 °F 81% 30.12 in 10.0 mi North 12.7 mph - N/A   Overcast
8:15 PM 35.6 °F 28.6 °F 30.2 °F 81% 30.13 in 10.0 mi North 9.2 mph - N/A   Overcast
8:35 PM 33.8 °F 25.3 °F 30.2 °F 87% 30.13 in 10.0 mi North 11.5 mph 19.6 mph N/A   Overcast
8:55 PM 33.8 °F 27.0 °F 30.2 °F 87% 30.15 in 10.0 mi NNW 8.1 mph - N/A   Overcast
9:15 PM 33.8 °F 27.0 °F 30.2 °F 87% 30.16 in 10.0 mi NNW 8.1 mph 16.1 mph N/A   Overcast
9:35 PM 33.8 °F 28.6 °F 30.2 °F 87% 30.17 in 10.0 mi North 5.8 mph - N/A   Overcast
9:55 PM 33.8 °F 25.8 °F 30.2 °F 87% 30.17 in 10.0 mi NNE 10.4 mph - N/A   Overcast
10:15 PM 33.8 °F 25.8 °F 30.2 °F 87% 30.17 in 10.0 mi North 10.4 mph - N/A   Overcast
10:35 PM 33.8 °F 27.7 °F 30.2 °F 87% 30.17 in 10.0 mi NNE 6.9 mph - N/A   Overcast
10:55 PM 33.8 °F 30.8 °F 30.2 °F 87% 30.17 in 10.0 mi ENE 3.5 mph - N/A   Overcast
11:15 PM 33.8 °F 30.8 °F 30.2 °F 87% 30.18 in 10.0 mi NE 3.5 mph - N/A   Overcast
11:35 PM 33.8 °F - 30.2 °F 87% 30.17 in 10.0 mi Calm Calm - N/A   Overcast
11:55 PM 33.8 °F 30.8 °F 30.2 °F 87% 30.16 in 10.0 mi East 3.5 mph - N/A   Overcast